AUA73 LOWW-HECA

Flight info

Callsign AUA73
Flight time 3h 5m
Altitude 35000
Route ARSIN DCT NALOX DCT OSDUK DCT SIVLA DCT AKIKA DCT MAVAR DCT BITLA DCT SIGFO DCT NEVRA/N0436F370 DCT KUMBI L612 BLT A16 CVO
Aircraft A320/M-SDE3FGHIRWY/LB1

Departure

Time 2026-04-23 20:29
Airport Vienna International Airport (LOWW)

Arrival

Time 2026-04-23 23:35
Airport Cairo International Airport (HECA)
Time Latitude Longitude Altitude Speed Heading
2026-04-23 19:48 48.11389 16.57249 626 ft 0 kts 205°
2026-04-23 20:23 48.11361 16.57229 623 ft 12 kts 205°
2026-04-23 20:24 48.11312 16.57244 609 ft 7 kts 122°
2026-04-23 20:24 48.11245 16.57280 609 ft 14 kts 203°
2026-04-23 20:24 48.11185 16.57347 613 ft 11 kts 115°
2026-04-23 20:24 48.11155 16.57443 622 ft 9 kts 115°
2026-04-23 20:25 48.11129 16.57523 609 ft 8 kts 116°
2026-04-23 20:25 48.11108 16.57586 615 ft 6 kts 116°
2026-04-23 20:25 48.11089 16.57636 614 ft 6 kts 129°
2026-04-23 20:25 48.11053 16.57653 616 ft 9 kts 187°
2026-04-23 20:26 48.11030 16.57639 614 ft 0 kts 206°
2026-04-23 20:28 48.11024 16.57634 620 ft 6 kts 206°
2026-04-23 20:28 48.10946 16.57574 615 ft 14 kts 215°
2026-04-23 20:28 48.10940 16.57452 621 ft 13 kts 295°
2026-04-23 20:28 48.11024 16.57200 612 ft 55 kts 296°
2026-04-23 20:29 48.11283 16.56401 617 ft 114 kts 296°
2026-04-23 20:29 48.11706 16.55105 617 ft 161 kts 296°
2026-04-23 20:29 48.12100 16.53532 1170 ft 161 kts 275°
2026-04-23 20:29 48.11726 16.51933 1768 ft 177 kts 236°
2026-04-23 20:30 48.10635 16.50912 2346 ft 191 kts 211°
2026-04-23 20:30 48.07877 16.49446 2930 ft 232 kts 204°
2026-04-23 20:30 48.06317 16.48688 3436 ft 238 kts 204°
2026-04-23 20:31 48.04819 16.47610 3883 ft 244 kts 218°
2026-04-23 20:31 48.03321 16.46187 4201 ft 267 kts 220°
2026-04-23 20:31 48.01717 16.44623 4726 ft 280 kts 219°
2026-04-23 20:31 48.00059 16.43063 5512 ft 286 kts 213°
2026-04-23 20:32 47.98116 16.42185 6291 ft 300 kts 188°
2026-04-23 20:32 47.96012 16.42496 7022 ft 308 kts 168°
2026-04-23 20:32 47.93922 16.43253 7784 ft 310 kts 167°
2026-04-23 20:32 47.91814 16.44012 8543 ft 313 kts 167°
2026-04-23 20:33 47.89687 16.44774 9324 ft 315 kts 166°
2026-04-23 20:33 47.87545 16.45537 10086 ft 318 kts 166°
2026-04-23 20:33 47.85400 16.46611 10385 ft 336 kts 149°
2026-04-23 20:33 47.83376 16.48548 10590 ft 355 kts 143°
2026-04-23 20:34 47.81303 16.50643 11130 ft 362 kts 143°
2026-04-23 20:34 47.79216 16.52769 11790 ft 366 kts 143°
2026-04-23 20:34 47.77110 16.54914 12478 ft 368 kts 143°
2026-04-23 20:34 47.74986 16.57066 13164 ft 371 kts 143°
2026-04-23 20:35 47.73125 16.58942 13777 ft 373 kts 143°
2026-04-23 20:35 47.71527 16.60546 14253 ft 375 kts 143°
2026-04-23 20:35 47.69357 16.62724 14859 ft 377 kts 143°
2026-04-23 20:36 47.67171 16.64915 15458 ft 380 kts 143°
2026-04-23 20:36 47.64974 16.67111 16039 ft 382 kts 143°
2026-04-23 20:36 47.62772 16.69311 16619 ft 384 kts 143°
2026-04-23 20:36 47.60541 16.71541 17191 ft 387 kts 143°
2026-04-23 20:37 47.58222 16.73603 17753 ft 392 kts 152°
2026-04-23 20:37 47.55660 16.75046 18318 ft 396 kts 163°
2026-04-23 20:37 47.52933 16.75762 18794 ft 401 kts 175°
2026-04-23 20:37 47.50136 16.76017 19268 ft 404 kts 175°
2026-04-23 20:38 47.47315 16.76271 19730 ft 407 kts 175°
2026-04-23 20:38 47.44474 16.76535 20188 ft 411 kts 174°
2026-04-23 20:38 47.41609 16.76810 20643 ft 414 kts 174°
2026-04-23 20:38 47.38720 16.77087 21096 ft 418 kts 174°
2026-04-23 20:39 47.35809 16.77366 21542 ft 421 kts 174°
2026-04-23 20:39 47.32876 16.77646 21995 ft 424 kts 173°
2026-04-23 20:39 47.29915 16.77927 22446 ft 428 kts 173°
2026-04-23 20:39 47.26928 16.78216 22889 ft 431 kts 173°
2026-04-23 20:40 47.23925 16.78506 23303 ft 435 kts 172°
2026-04-23 20:40 47.20900 16.78801 23711 ft 438 kts 172°
2026-04-23 20:40 47.17845 16.79092 24064 ft 441 kts 172°
2026-04-23 20:40 47.14776 16.79380 24422 ft 443 kts 172°
2026-04-23 20:41 47.11698 16.79667 24770 ft 445 kts 172°
2026-04-23 20:41 47.08596 16.79959 25113 ft 447 kts 172°
2026-04-23 20:41 47.05493 16.80251 25459 ft 449 kts 172°
2026-04-23 20:41 47.02358 16.80549 25777 ft 451 kts 172°
2026-04-23 20:42 46.99226 16.80847 26105 ft 453 kts 172°
2026-04-23 20:42 46.96070 16.81147 26428 ft 455 kts 172°
2026-04-23 20:42 46.92902 16.81468 26739 ft 456 kts 169°
2026-04-23 20:42 46.89798 16.82278 27054 ft 452 kts 159°
2026-04-23 20:43 46.86847 16.83775 27350 ft 447 kts 150°
2026-04-23 20:43 46.84127 16.85888 27648 ft 441 kts 141°
2026-04-23 20:43 46.81685 16.88556 27955 ft 436 kts 133°
2026-04-23 20:43 46.79384 16.91453 28256 ft 438 kts 133°
2026-04-23 20:44 46.77068 16.94351 28551 ft 439 kts 133°
2026-04-23 20:44 46.74739 16.97242 28841 ft 441 kts 133°
2026-04-23 20:44 46.72391 17.00145 29125 ft 442 kts 133°
2026-04-23 20:44 46.70041 17.03046 29404 ft 444 kts 133°
2026-04-23 20:45 46.67678 17.05961 29675 ft 445 kts 133°
2026-04-23 20:45 46.65339 17.08844 29925 ft 447 kts 133°
2026-04-23 20:45 46.62931 17.11804 30194 ft 448 kts 133°
2026-04-23 20:45 46.60548 17.14728 30405 ft 449 kts 133°
2026-04-23 20:46 46.58153 17.17668 30613 ft 451 kts 133°
2026-04-23 20:46 46.55760 17.20606 30894 ft 449 kts 133°
2026-04-23 20:46 46.53377 17.23527 31182 ft 448 kts 133°
2026-04-23 20:46 46.50994 17.26446 31468 ft 448 kts 133°
2026-04-23 20:47 46.48617 17.29354 31731 ft 447 kts 133°
2026-04-23 20:47 46.46235 17.32265 32006 ft 447 kts 133°
2026-04-23 20:47 46.43862 17.35166 32274 ft 446 kts 133°
2026-04-23 20:47 46.41494 17.38056 32539 ft 446 kts 133°
2026-04-23 20:48 46.39115 17.40947 32796 ft 445 kts 133°
2026-04-23 20:48 46.36743 17.43828 33072 ft 445 kts 133°
2026-04-23 20:48 46.34379 17.46704 33341 ft 444 kts 133°
2026-04-23 20:48 46.32016 17.49582 33599 ft 443 kts 133°
2026-04-23 20:49 46.29658 17.52452 33861 ft 443 kts 133°
2026-04-23 20:49 46.27300 17.55315 34108 ft 443 kts 134°
2026-04-23 20:49 46.24967 17.58138 34315 ft 443 kts 134°
2026-04-23 20:49 46.22604 17.60989 34513 ft 443 kts 134°
2026-04-23 20:50 46.20233 17.63842 34695 ft 443 kts 134°
2026-04-23 20:50 46.17836 17.66721 34875 ft 443 kts 134°
2026-04-23 20:50 46.15495 17.69536 35032 ft 444 kts 134°
2026-04-23 20:50 46.13131 17.72379 35077 ft 442 kts 134°
2026-04-23 20:51 46.08428 17.78037 35076 ft 440 kts 134°
2026-04-23 20:51 46.03718 17.83674 35081 ft 440 kts 134°
2026-04-23 20:52 45.99010 17.89289 35081 ft 440 kts 134°
2026-04-23 20:52 45.94293 17.94917 35081 ft 441 kts 134°
2026-04-23 20:53 45.89578 18.00535 35082 ft 441 kts 135°
2026-04-23 20:53 45.84846 18.06151 35079 ft 441 kts 135°
2026-04-23 20:54 45.79999 18.11557 35075 ft 447 kts 143°
2026-04-23 20:54 45.74208 18.15040 35066 ft 458 kts 161°
2026-04-23 20:55 45.68022 18.17270 35058 ft 459 kts 161°
2026-04-23 20:55 45.61856 18.19519 35058 ft 459 kts 161°
2026-04-23 20:56 45.55640 18.21791 35061 ft 460 kts 161°
2026-04-23 20:56 45.49442 18.24046 35067 ft 460 kts 162°
2026-04-23 20:57 45.43229 18.26297 35065 ft 460 kts 162°
2026-04-23 20:57 45.37023 18.28531 35064 ft 460 kts 162°
2026-04-23 20:58 45.30812 18.30763 35071 ft 460 kts 162°
2026-04-23 20:58 45.25643 18.32623 35070 ft 461 kts 162°
2026-04-23 20:59 45.19430 18.34862 35069 ft 461 kts 162°
2026-04-23 20:59 45.13210 18.37090 35072 ft 461 kts 162°
2026-04-23 21:00 45.07081 18.39705 35075 ft 459 kts 157°
2026-04-23 21:00 45.01061 18.42711 35076 ft 459 kts 157°
2026-04-23 21:01 44.95027 18.45713 35079 ft 460 kts 158°
2026-04-23 21:01 44.88983 18.48695 35083 ft 460 kts 158°
2026-04-23 21:02 44.82940 18.51681 35081 ft 460 kts 158°
2026-04-23 21:02 44.76896 18.54662 35084 ft 460 kts 158°
2026-04-23 21:03 44.70850 18.57634 35094 ft 460 kts 158°
2026-04-23 21:03 44.64803 18.60600 35099 ft 460 kts 158°
2026-04-23 21:04 44.58749 18.63569 35106 ft 460 kts 158°
2026-04-23 21:04 44.52698 18.66526 35103 ft 460 kts 158°
2026-04-23 21:05 44.46652 18.69462 35106 ft 460 kts 158°
2026-04-23 21:05 44.40606 18.72401 35117 ft 460 kts 158°
2026-04-23 21:06 44.34556 18.75345 35116 ft 460 kts 158°
2026-04-23 21:06 44.28555 18.78246 35117 ft 459 kts 158°
2026-04-23 21:07 44.22521 18.81154 35119 ft 459 kts 158°
2026-04-23 21:07 44.16483 18.84069 35121 ft 459 kts 158°
2026-04-23 21:08 44.10457 18.86975 35127 ft 459 kts 158°
2026-04-23 21:08 44.04421 18.89871 35126 ft 459 kts 158°
2026-04-23 21:09 43.98387 18.92758 35129 ft 458 kts 158°
2026-04-23 21:09 43.92360 18.95635 35130 ft 459 kts 158°
2026-04-23 21:10 43.86323 18.98520 35121 ft 458 kts 158°
2026-04-23 21:10 43.80291 19.01403 35123 ft 459 kts 158°
2026-04-23 21:11 43.74249 19.04268 35123 ft 459 kts 158°
2026-04-23 21:11 43.68202 19.07115 35128 ft 459 kts 158°
2026-04-23 21:12 43.62164 19.09966 35132 ft 459 kts 158°
2026-04-23 21:12 43.56166 19.12810 35134 ft 459 kts 158°
2026-04-23 21:13 43.50085 19.15683 35134 ft 459 kts 158°
2026-04-23 21:13 43.44086 19.18501 35129 ft 459 kts 158°
2026-04-23 21:14 43.38047 19.21329 35135 ft 459 kts 158°
2026-04-23 21:14 43.32006 19.24153 35148 ft 458 kts 158°
2026-04-23 21:15 43.25969 19.26976 35142 ft 458 kts 158°
2026-04-23 21:15 43.19934 19.29789 35143 ft 458 kts 158°
2026-04-23 21:16 43.13896 19.32595 35143 ft 458 kts 158°
2026-04-23 21:16 43.07862 19.35388 35141 ft 458 kts 158°
2026-04-23 21:17 43.01819 19.38181 35143 ft 458 kts 158°
2026-04-23 21:17 42.95792 19.40976 35139 ft 458 kts 158°
2026-04-23 21:18 42.89754 19.43762 35133 ft 458 kts 158°
2026-04-23 21:18 42.83758 19.46514 35136 ft 458 kts 158°
2026-04-23 21:19 42.77727 19.49281 35127 ft 457 kts 158°
2026-04-23 21:19 42.71695 19.52044 35125 ft 457 kts 157°
2026-04-23 21:20 42.65675 19.54801 35118 ft 457 kts 157°
2026-04-23 21:20 42.59648 19.57546 35106 ft 457 kts 157°
2026-04-23 21:21 42.53754 19.60654 35103 ft 451 kts 146°
2026-04-23 21:21 42.48717 19.65523 35098 ft 443 kts 136°
2026-04-23 21:22 42.43920 19.70754 35104 ft 443 kts 136°
2026-04-23 21:22 42.39106 19.75965 35105 ft 443 kts 136°
2026-04-23 21:23 42.34286 19.81171 35103 ft 442 kts 136°
2026-04-23 21:23 42.29492 19.86358 35103 ft 442 kts 136°
2026-04-23 21:24 42.24686 19.91553 35099 ft 442 kts 136°
2026-04-23 21:24 42.19886 19.96726 35098 ft 442 kts 136°
2026-04-23 21:25 42.15072 20.01883 35098 ft 442 kts 136°
2026-04-23 21:25 42.10264 20.07043 35101 ft 442 kts 136°
2026-04-23 21:26 42.05457 20.12197 35101 ft 441 kts 136°
2026-04-23 21:26 42.00683 20.17298 35104 ft 441 kts 136°
2026-04-23 21:27 41.95875 20.22420 35103 ft 441 kts 136°
2026-04-23 21:27 41.91062 20.27537 35108 ft 441 kts 136°
2026-04-23 21:28 41.86255 20.32644 35110 ft 441 kts 136°
2026-04-23 21:28 41.81450 20.37738 35108 ft 440 kts 136°
2026-04-23 21:29 41.76646 20.42822 35110 ft 440 kts 136°
2026-04-23 21:29 41.71850 20.47891 35113 ft 439 kts 136°
2026-04-23 21:30 41.67053 20.52950 35112 ft 439 kts 136°
2026-04-23 21:30 41.62258 20.58011 35117 ft 439 kts 136°
2026-04-23 21:31 41.57467 20.63068 35117 ft 438 kts 136°
2026-04-23 21:31 41.52688 20.68112 35113 ft 438 kts 136°
2026-04-23 21:32 41.47900 20.73146 35110 ft 438 kts 136°
2026-04-23 21:32 41.43123 20.78170 35110 ft 438 kts 136°
2026-04-23 21:33 41.38360 20.83156 35109 ft 437 kts 136°
2026-04-23 21:33 41.33580 20.88154 35103 ft 437 kts 136°
2026-04-23 21:34 41.28797 20.93154 35099 ft 437 kts 136°
2026-04-23 21:34 41.24011 20.98138 35096 ft 437 kts 136°
2026-04-23 21:35 41.19225 21.03109 35096 ft 437 kts 136°
2026-04-23 21:35 41.14437 21.08079 35089 ft 437 kts 137°
2026-04-23 21:36 41.07248 21.15523 35089 ft 437 kts 137°
2026-04-23 21:37 41.02458 21.20477 35089 ft 437 kts 137°
2026-04-23 21:37 40.97661 21.25424 35084 ft 437 kts 137°
2026-04-23 21:38 40.92864 21.30353 35081 ft 437 kts 137°
2026-04-23 21:38 40.88093 21.35251 35082 ft 437 kts 136°
2026-04-23 21:39 40.83642 21.40631 35081 ft 433 kts 131°
2026-04-23 21:39 40.79231 21.46063 35080 ft 434 kts 131°
2026-04-23 21:40 40.74819 21.51487 35079 ft 434 kts 131°
2026-04-23 21:40 40.70406 21.56921 35084 ft 434 kts 131°
2026-04-23 21:41 40.65989 21.62342 35075 ft 434 kts 132°
2026-04-23 21:41 40.61551 21.67763 35083 ft 435 kts 132°
2026-04-23 21:42 40.57109 21.73175 35071 ft 435 kts 132°
2026-04-23 21:42 40.52665 21.78577 35073 ft 435 kts 132°
2026-04-23 21:43 40.48217 21.83986 35080 ft 436 kts 132°
2026-04-23 21:43 40.43768 21.89392 35082 ft 436 kts 132°
2026-04-23 21:44 40.39311 21.94790 35082 ft 436 kts 132°
2026-04-23 21:44 40.34848 22.00182 35094 ft 436 kts 132°
2026-04-23 21:45 40.30379 22.05578 35077 ft 436 kts 132°
2026-04-23 21:45 40.25943 22.10920 35081 ft 436 kts 133°
2026-04-23 21:46 40.21477 22.16286 35077 ft 436 kts 133°
2026-04-23 21:46 40.17008 22.21642 35078 ft 436 kts 133°
2026-04-23 21:47 40.12539 22.26989 35079 ft 435 kts 133°
2026-04-23 21:47 40.08073 22.32330 35071 ft 435 kts 133°
2026-04-23 21:48 40.03604 22.37660 35070 ft 435 kts 133°
2026-04-23 21:48 39.99893 22.42080 35069 ft 435 kts 133°
2026-04-23 21:49 39.95430 22.47401 35070 ft 435 kts 134°
2026-04-23 21:49 39.90967 22.52704 35069 ft 434 kts 134°
2026-04-23 21:50 39.86496 22.58006 35070 ft 435 kts 134°
2026-04-23 21:50 39.82019 22.63289 35066 ft 435 kts 134°
2026-04-23 21:51 39.77538 22.68576 35065 ft 435 kts 134°
2026-04-23 21:51 39.73058 22.73861 35063 ft 435 kts 135°
2026-04-23 21:52 39.68572 22.79145 35054 ft 436 kts 135°
2026-04-23 21:52 39.64069 22.84429 35053 ft 436 kts 135°
2026-04-23 21:53 39.59564 22.89709 35051 ft 437 kts 135°
2026-04-23 21:53 39.55080 22.94960 35052 ft 438 kts 136°
2026-04-23 21:54 39.50520 23.00282 35051 ft 438 kts 136°
2026-04-23 21:54 39.46015 23.05527 35049 ft 439 kts 136°
2026-04-23 21:55 39.41470 23.10815 35050 ft 440 kts 136°
2026-04-23 21:55 39.36905 23.16106 35046 ft 441 kts 137°
2026-04-23 21:56 39.32340 23.21396 35041 ft 441 kts 137°
2026-04-23 21:56 39.27764 23.26694 35035 ft 442 kts 137°
2026-04-23 21:57 39.23177 23.31994 35041 ft 443 kts 137°
2026-04-23 21:57 39.18573 23.37303 35041 ft 444 kts 138°
2026-04-23 21:58 39.13960 23.42607 35042 ft 445 kts 138°
2026-04-23 21:58 39.09338 23.47916 35041 ft 446 kts 138°
2026-04-23 21:59 39.04704 23.53232 35042 ft 446 kts 139°
2026-04-23 21:59 39.00062 23.58544 35043 ft 447 kts 139°
2026-04-23 22:00 38.93082 23.66516 35043 ft 448 kts 139°
2026-04-23 22:00 38.88490 23.71931 35038 ft 449 kts 138°
2026-04-23 22:01 38.83923 23.77423 35037 ft 450 kts 138°
2026-04-23 22:01 38.79345 23.82893 35038 ft 451 kts 139°
2026-04-23 22:02 38.74762 23.88320 35040 ft 451 kts 139°
2026-04-23 22:02 38.70132 23.93776 35038 ft 452 kts 139°
2026-04-23 22:03 38.65498 23.99242 35037 ft 454 kts 139°
2026-04-23 22:03 38.60854 24.04717 35036 ft 454 kts 140°
2026-04-23 22:04 38.56198 24.10190 35034 ft 455 kts 140°
2026-04-23 22:04 38.51522 24.15665 35031 ft 457 kts 140°
2026-04-23 22:05 38.46832 24.21150 35053 ft 458 kts 140°
2026-04-23 22:05 38.42136 24.26642 35054 ft 459 kts 141°
2026-04-23 22:06 38.37422 24.32142 35053 ft 459 kts 141°
2026-04-23 22:06 38.32700 24.37636 35046 ft 460 kts 141°
2026-04-23 22:07 38.27964 24.43136 35042 ft 461 kts 141°
2026-04-23 22:07 38.23223 24.48624 35029 ft 461 kts 142°
2026-04-23 22:08 38.18478 24.54115 35026 ft 462 kts 142°
2026-04-23 22:08 38.13672 24.59428 35012 ft 460 kts 145°
2026-04-23 22:09 38.08643 24.64468 35015 ft 460 kts 147°
2026-04-23 22:09 38.03571 24.69444 35014 ft 461 kts 147°
2026-04-23 22:10 37.98520 24.74477 35004 ft 462 kts 147°
2026-04-23 22:10 37.93490 24.79556 35006 ft 463 kts 147°
2026-04-23 22:11 37.88448 24.84648 35010 ft 464 kts 147°
2026-04-23 22:11 37.83391 24.89723 34993 ft 464 kts 148°
2026-04-23 22:12 37.78311 24.94789 35001 ft 465 kts 148°
2026-04-23 22:12 37.73237 24.99855 34993 ft 465 kts 148°
2026-04-23 22:13 37.68190 25.04890 34997 ft 466 kts 148°
2026-04-23 22:13 37.63093 25.09957 34996 ft 466 kts 148°
2026-04-23 22:14 37.58000 25.15021 34982 ft 467 kts 148°
2026-04-23 22:14 37.52891 25.20089 34977 ft 467 kts 148°
2026-04-23 22:15 37.47776 25.25144 34979 ft 467 kts 149°
2026-04-23 22:15 37.42665 25.30186 34984 ft 467 kts 149°
2026-04-23 22:16 37.37547 25.35232 34986 ft 467 kts 149°
2026-04-23 22:16 37.32429 25.40261 34985 ft 467 kts 149°
2026-04-23 22:17 37.27314 25.45288 34994 ft 467 kts 149°
2026-04-23 22:17 37.22205 25.50300 34989 ft 466 kts 149°
2026-04-23 22:18 37.17129 25.55275 34989 ft 466 kts 149°
2026-04-23 22:18 37.12023 25.60262 34982 ft 465 kts 149°
2026-04-23 22:19 37.06915 25.65243 34979 ft 466 kts 149°
2026-04-23 22:19 37.01798 25.70225 34968 ft 465 kts 149°
2026-04-23 22:20 36.96686 25.75199 34969 ft 466 kts 149°
2026-04-23 22:20 36.91567 25.80170 34966 ft 466 kts 149°
2026-04-23 22:21 36.86449 25.85126 34964 ft 466 kts 149°
2026-04-23 22:21 36.81330 25.90083 34958 ft 466 kts 149°
2026-04-23 22:22 36.76205 25.95033 34962 ft 466 kts 149°
2026-04-23 22:22 36.71074 25.99973 34960 ft 466 kts 149°
2026-04-23 22:23 36.65938 26.04912 34962 ft 466 kts 149°
2026-04-23 22:23 36.60794 26.09849 34963 ft 466 kts 149°
2026-04-23 22:24 36.55688 26.14743 34969 ft 467 kts 149°
2026-04-23 22:24 36.50549 26.19665 34967 ft 466 kts 149°
2026-04-23 22:25 36.45407 26.24581 34969 ft 466 kts 149°
2026-04-23 22:25 36.40264 26.29484 34960 ft 466 kts 149°
2026-04-23 22:26 36.35112 26.34390 34961 ft 466 kts 149°
2026-04-23 22:26 36.29962 26.39288 34961 ft 466 kts 149°
2026-04-23 22:27 36.24814 26.44171 34961 ft 466 kts 149°
2026-04-23 22:27 36.19662 26.49048 34959 ft 466 kts 149°
2026-04-23 22:28 36.14509 26.53924 34955 ft 466 kts 149°
2026-04-23 22:28 36.09350 26.58794 34960 ft 466 kts 149°
2026-04-23 22:29 36.04190 26.63651 34964 ft 466 kts 149°
2026-04-23 22:29 35.99033 26.68505 34957 ft 466 kts 148°
2026-04-23 22:30 35.93872 26.73362 34963 ft 466 kts 148°
2026-04-23 22:30 35.88745 26.78171 34962 ft 465 kts 149°
2026-04-23 22:31 35.83586 26.82991 34960 ft 465 kts 148°
2026-04-23 22:31 35.78430 26.87805 34946 ft 465 kts 148°
2026-04-23 22:32 35.73285 26.92613 34948 ft 464 kts 148°
2026-04-23 22:32 35.68137 26.97415 34942 ft 464 kts 148°
2026-04-23 22:33 35.62999 27.02204 34948 ft 464 kts 148°
2026-04-23 22:33 35.57849 27.06975 34953 ft 463 kts 148°
2026-04-23 22:34 35.52697 27.11731 34960 ft 463 kts 148°
2026-04-23 22:34 35.47548 27.16498 34963 ft 463 kts 148°
2026-04-23 22:35 35.42416 27.21256 35018 ft 462 kts 151°
2026-04-23 22:35 35.37281 27.25996 35004 ft 462 kts 151°
2026-04-23 22:36 35.32178 27.30693 34981 ft 461 kts 151°
2026-04-23 22:36 35.27047 27.35403 34967 ft 461 kts 151°
2026-04-23 22:37 35.21915 27.40112 34952 ft 461 kts 151°
2026-04-23 22:37 35.16782 27.44816 34943 ft 461 kts 151°
2026-04-23 22:38 35.11654 27.49500 34942 ft 461 kts 151°
2026-04-23 22:38 35.07389 27.53394 34941 ft 461 kts 151°
2026-04-23 22:39 35.02259 27.58080 34941 ft 461 kts 150°
2026-04-23 22:39 34.97120 27.62764 34940 ft 461 kts 151°
2026-04-23 22:40 34.91982 27.67433 34935 ft 461 kts 151°
2026-04-23 22:41 34.84268 27.74433 34932 ft 461 kts 151°
2026-04-23 22:41 34.79121 27.79101 34929 ft 462 kts 150°
2026-04-23 22:42 34.73964 27.83762 34932 ft 462 kts 151°
2026-04-23 22:42 34.68803 27.88415 34933 ft 462 kts 151°
2026-04-23 22:43 34.63636 27.93074 34929 ft 462 kts 151°
2026-04-23 22:43 34.58479 27.97716 34926 ft 462 kts 151°
2026-04-23 22:44 34.53305 28.02362 34930 ft 462 kts 151°
2026-04-23 22:44 34.48127 28.07009 34930 ft 462 kts 151°
2026-04-23 22:45 34.42946 28.11655 34937 ft 465 kts 149°
2026-04-23 22:45 34.37744 28.16303 34942 ft 465 kts 149°
2026-04-23 22:46 34.32541 28.20952 34939 ft 465 kts 149°
2026-04-23 22:46 34.27373 28.25562 34941 ft 464 kts 149°
2026-04-23 22:47 34.22169 28.30190 34937 ft 464 kts 149°
2026-04-23 22:47 34.16962 28.34807 34934 ft 464 kts 149°
2026-04-23 22:48 34.11760 28.39422 34931 ft 465 kts 149°
2026-04-23 22:48 34.06544 28.44045 34928 ft 465 kts 149°
2026-04-23 22:49 34.01331 28.48656 34928 ft 465 kts 149°
2026-04-23 22:49 33.96116 28.53268 34927 ft 465 kts 149°
2026-04-23 22:50 33.90889 28.57871 34919 ft 465 kts 149°
2026-04-23 22:50 33.85657 28.62473 34928 ft 466 kts 149°
2026-04-23 22:51 33.80424 28.67073 34920 ft 466 kts 149°
2026-04-23 22:51 33.75193 28.71669 34920 ft 466 kts 149°
2026-04-23 22:52 33.70069 28.76481 34915 ft 472 kts 141°
2026-04-23 22:52 33.65282 28.81874 34917 ft 472 kts 142°
2026-04-23 22:53 33.60522 28.87226 34916 ft 473 kts 142°
2026-04-23 22:53 33.55712 28.92607 34914 ft 473 kts 142°
2026-04-23 22:54 33.50895 28.97987 34924 ft 473 kts 142°
2026-04-23 22:54 33.46075 29.03369 34926 ft 474 kts 142°
2026-04-23 22:55 33.41256 29.08745 34923 ft 474 kts 142°
2026-04-23 22:55 33.36424 29.14136 34922 ft 474 kts 142°
2026-04-23 22:56 33.31589 29.19512 34924 ft 475 kts 142°
2026-04-23 22:56 33.26749 29.24881 34926 ft 475 kts 142°
2026-04-23 22:57 33.21902 29.30242 34924 ft 475 kts 142°
2026-04-23 22:57 33.17052 29.35603 34929 ft 475 kts 142°
2026-04-23 22:58 33.12242 29.40931 34928 ft 475 kts 142°
2026-04-23 22:58 33.07394 29.46288 34929 ft 475 kts 142°
2026-04-23 22:59 33.02540 29.51627 34930 ft 475 kts 142°
2026-04-23 22:59 32.97677 29.56955 34929 ft 475 kts 142°
2026-04-23 23:00 32.92822 29.62290 34930 ft 475 kts 142°
2026-04-23 23:00 32.87967 29.67613 34929 ft 475 kts 142°
2026-04-23 23:01 32.83111 29.72936 34933 ft 475 kts 142°
2026-04-23 23:01 32.78252 29.78246 34928 ft 474 kts 142°
2026-04-23 23:02 32.73388 29.83550 34929 ft 475 kts 142°
2026-04-23 23:02 32.68554 29.88814 34931 ft 475 kts 142°
2026-04-23 23:03 32.63685 29.94115 34935 ft 475 kts 142°
2026-04-23 23:03 32.58817 29.99404 34936 ft 474 kts 143°
2026-04-23 23:04 32.53946 30.04682 34930 ft 474 kts 143°
2026-04-23 23:04 32.49081 30.09943 34928 ft 474 kts 143°
2026-04-23 23:05 32.44209 30.15195 34944 ft 473 kts 143°
2026-04-23 23:05 32.39333 30.20442 34943 ft 473 kts 143°
2026-04-23 23:06 32.34464 30.25674 34940 ft 473 kts 143°
2026-04-23 23:06 32.29592 30.30909 34938 ft 473 kts 143°
2026-04-23 23:07 32.24730 30.36133 34942 ft 472 kts 143°
2026-04-23 23:07 32.19865 30.41347 34938 ft 472 kts 143°
2026-04-23 23:08 32.14995 30.46548 34939 ft 472 kts 143°
2026-04-23 23:08 32.10166 30.51697 34939 ft 472 kts 143°
2026-04-23 23:09 32.05288 30.56881 34941 ft 471 kts 143°
2026-04-23 23:09 32.00423 30.62051 34943 ft 471 kts 143°
2026-04-23 23:10 31.95568 30.67228 34945 ft 471 kts 143°
2026-04-23 23:10 31.90698 30.72395 34944 ft 471 kts 143°
2026-04-23 23:11 31.85833 30.77553 34948 ft 470 kts 143°
2026-04-23 23:11 31.80975 30.82694 34952 ft 470 kts 143°
2026-04-23 23:12 31.76109 30.87825 34945 ft 470 kts 143°
2026-04-23 23:12 31.71237 30.92957 34942 ft 470 kts 143°
2026-04-23 23:12 31.68808 30.95514 34768 ft 467 kts 143°
2026-04-23 23:13 31.66395 30.98055 34522 ft 464 kts 143°
2026-04-23 23:13 31.64010 31.00570 34281 ft 461 kts 143°
2026-04-23 23:13 31.61628 31.03084 33736 ft 459 kts 143°
2026-04-23 23:13 31.59286 31.05549 33176 ft 457 kts 143°
2026-04-23 23:14 31.56926 31.08024 32619 ft 454 kts 144°
2026-04-23 23:14 31.54449 31.10234 32117 ft 443 kts 154°
2026-04-23 23:14 31.51750 31.11881 31632 ft 432 kts 165°
2026-04-23 23:14 31.48933 31.12947 31159 ft 420 kts 174°
2026-04-23 23:15 31.46087 31.13534 30704 ft 413 kts 178°
2026-04-23 23:15 31.43264 31.14058 30248 ft 410 kts 178°
2026-04-23 23:15 31.40455 31.14583 29762 ft 407 kts 178°
2026-04-23 23:15 31.37671 31.15107 29326 ft 403 kts 177°
2026-04-23 23:16 31.34924 31.15627 28899 ft 398 kts 177°
2026-04-23 23:16 31.32204 31.16140 28483 ft 394 kts 177°
2026-04-23 23:16 31.29515 31.16644 28071 ft 390 kts 177°
2026-04-23 23:16 31.26854 31.17140 27663 ft 386 kts 177°
2026-04-23 23:17 31.24214 31.17634 27238 ft 382 kts 177°
2026-04-23 23:17 31.21594 31.18124 26795 ft 380 kts 177°
2026-04-23 23:17 31.18993 31.18609 26370 ft 377 kts 176°
2026-04-23 23:17 31.16417 31.19090 25938 ft 375 kts 176°
2026-04-23 23:18 31.13847 31.19570 25500 ft 373 kts 176°
2026-04-23 23:18 31.11293 31.20045 25040 ft 371 kts 176°
2026-04-23 23:18 31.08745 31.20518 24587 ft 370 kts 176°
2026-04-23 23:18 31.06204 31.20989 24127 ft 369 kts 176°
2026-04-23 23:19 31.03643 31.21312 23331 ft 374 kts 182°
2026-04-23 23:19 31.01032 31.21428 22283 ft 387 kts 182°
2026-04-23 23:19 30.98313 31.21502 21862 ft 382 kts 183°
2026-04-23 23:19 30.95713 31.21558 21376 ft 374 kts 183°
2026-04-23 23:20 30.93089 31.21612 20557 ft 370 kts 183°
2026-04-23 23:20 30.90527 31.21671 19772 ft 366 kts 182°
2026-04-23 23:20 30.88037 31.21738 19082 ft 360 kts 182°
2026-04-23 23:20 30.85571 31.21813 18636 ft 348 kts 182°
2026-04-23 23:21 30.83195 31.21888 18202 ft 336 kts 182°
2026-04-23 23:21 30.80871 31.21958 17754 ft 334 kts 182°
2026-04-23 23:21 30.78556 31.22023 17333 ft 332 kts 182°
2026-04-23 23:21 30.76246 31.22087 16938 ft 331 kts 182°
2026-04-23 23:22 30.73951 31.22151 16528 ft 330 kts 182°
2026-04-23 23:22 30.71660 31.22215 16137 ft 329 kts 182°
2026-04-23 23:22 30.69375 31.22279 15730 ft 328 kts 181°
2026-04-23 23:22 30.67092 31.22344 15335 ft 327 kts 181°
2026-04-23 23:23 30.64817 31.22409 14942 ft 327 kts 181°
2026-04-23 23:23 30.62543 31.22473 14547 ft 326 kts 181°
2026-04-23 23:23 30.60276 31.22540 14145 ft 326 kts 181°
2026-04-23 23:23 30.58013 31.22607 13757 ft 326 kts 181°
2026-04-23 23:24 30.55747 31.22673 13326 ft 325 kts 181°
2026-04-23 23:24 30.53491 31.22737 12918 ft 323 kts 181°
2026-04-23 23:24 30.51250 31.22801 12522 ft 321 kts 181°
2026-04-23 23:24 30.49025 31.22865 12118 ft 320 kts 181°
2026-04-23 23:25 30.46807 31.22927 11715 ft 318 kts 181°
2026-04-23 23:25 30.44628 31.22988 11318 ft 317 kts 181°
2026-04-23 23:25 30.42425 31.23050 10907 ft 316 kts 180°
2026-04-23 23:25 30.40233 31.23109 10497 ft 315 kts 180°
2026-04-23 23:26 30.38053 31.23168 10259 ft 307 kts 180°
2026-04-23 23:26 30.35957 31.23230 9838 ft 300 kts 180°
2026-04-23 23:26 30.33875 31.23291 9441 ft 297 kts 180°
2026-04-23 23:26 30.31832 31.23350 8872 ft 291 kts 180°
2026-04-23 23:27 30.29842 31.23410 8480 ft 284 kts 180°
2026-04-23 23:27 30.27858 31.23469 8063 ft 284 kts 180°
2026-04-23 23:27 30.25881 31.23527 7654 ft 284 kts 180°
2026-04-23 23:27 30.23902 31.23585 7231 ft 285 kts 180°
2026-04-23 23:28 30.21915 31.23643 6796 ft 285 kts 180°
2026-04-23 23:28 30.19928 31.23700 6360 ft 286 kts 180°
2026-04-23 23:28 30.17931 31.23757 5891 ft 287 kts 179°
2026-04-23 23:28 30.15930 31.23814 5442 ft 288 kts 179°
2026-04-23 23:29 30.13988 31.23870 5255 ft 268 kts 179°
2026-04-23 23:29 30.12184 31.23923 5013 ft 252 kts 179°
2026-04-23 23:29 30.10479 31.23972 4723 ft 240 kts 179°
2026-04-23 23:29 30.08834 31.24016 4436 ft 230 kts 179°
2026-04-23 23:30 30.07287 31.24060 4287 ft 215 kts 179°
2026-04-23 23:30 30.06312 31.24089 4238 ft 210 kts 179°
2026-04-23 23:30 30.04856 31.24131 4137 ft 208 kts 179°
2026-04-23 23:30 30.03419 31.24202 4043 ft 207 kts 169°
2026-04-23 23:31 30.02133 31.24875 3952 ft 204 kts 135°
2026-04-23 23:31 30.01357 31.26195 3857 ft 199 kts 103°
2026-04-23 23:31 30.01273 31.27749 3577 ft 194 kts 74°
2026-04-23 23:31 30.01895 31.29117 3075 ft 197 kts 47°
2026-04-23 23:32 30.02810 31.30324 2586 ft 202 kts 47°
2026-04-23 23:32 30.03719 31.31520 2255 ft 192 kts 48°
2026-04-23 23:32 30.04561 31.32635 1992 ft 176 kts 48°
2026-04-23 23:32 30.05324 31.33648 1801 ft 157 kts 49°
2026-04-23 23:33 30.06003 31.34549 1591 ft 142 kts 50°
2026-04-23 23:33 30.06640 31.35396 1393 ft 138 kts 49°
2026-04-23 23:33 30.07259 31.36218 1221 ft 135 kts 49°
2026-04-23 23:33 30.07871 31.37031 1047 ft 134 kts 48°
2026-04-23 23:34 30.08487 31.37849 844 ft 135 kts 49°
2026-04-23 23:34 30.09104 31.38660 695 ft 134 kts 48°
2026-04-23 23:34 30.09715 31.39474 514 ft 134 kts 49°
2026-04-23 23:34 30.10304 31.40268 399 ft 124 kts 47°
2026-04-23 23:35 30.10789 31.40920 385 ft 84 kts 49°
2026-04-23 23:35 30.11088 31.41317 386 ft 51 kts 50°
2026-04-23 23:35 30.11260 31.41532 385 ft 23 kts 36°
2026-04-23 23:35 30.11409 31.41602 380 ft 25 kts 22°
2026-04-23 23:36 30.11553 31.41607 372 ft 15 kts 309°
2026-04-23 23:36 30.11525 31.41496 369 ft 15 kts 232°
2026-04-23 23:36 30.11435 31.41382 369 ft 22 kts 226°
2026-04-23 23:36 30.11336 31.41246 370 ft 22 kts 229°
2026-04-23 23:37 30.11239 31.41118 370 ft 20 kts 228°
2026-04-23 23:37 30.11153 31.41004 370 ft 19 kts 230°
2026-04-23 23:37 30.11051 31.40864 370 ft 25 kts 225°
2026-04-23 23:37 30.10932 31.40712 371 ft 26 kts 230°
2026-04-23 23:38 30.10809 31.40549 371 ft 27 kts 229°
2026-04-23 23:38 30.10701 31.40402 371 ft 18 kts 229°
2026-04-23 23:38 30.10703 31.40298 367 ft 15 kts 297°
2026-04-23 23:38 30.10665 31.40195 365 ft 15 kts 225°
2026-04-23 23:39 30.10582 31.40086 365 ft 20 kts 228°
2026-04-23 23:39 30.10499 31.39972 368 ft 16 kts 241°
2026-04-23 23:39 30.10524 31.39856 360 ft 13 kts 332°
2026-04-23 23:39 30.10635 31.39827 356 ft 20 kts 347°
2026-04-23 23:40 30.10785 31.39783 350 ft 24 kts 346°
2026-04-23 23:40 30.10932 31.39737 334 ft 11 kts 348°
2026-04-23 23:40 30.10976 31.39781 336 ft 6 kts 76°
2026-04-23 23:40 30.10983 31.39814 333 ft 3 kts 75°
2026-04-23 23:41 30.10985 31.39821 334 ft 1 kts 76°
2026-04-23 23:41 30.10985 31.39823 335 ft 0 kts 76°